Regional Weather Roundup
Issued by NWS

Home | Current Version | Previous Version | Text Only | Print | Product List | Glossary On
Versions: 1 2 3 4 5 6 7 8 9 10 11 12 13 14 15 16 17 18 19 20 21 22 23 24 25 26 27 28 29 30 31 32 33 34 35 36 37 38 39 40 41 42 43 44 45 46 47 48 49 50
000
ASUS43 KIND 281609
RWRIN

WEATHER ROUNDUP FOR INDIANA
NATIONAL WEATHER SERVICE INDIANAPOLIS IN
1200 PM EDT SAT MAR 28 2015

NOTE: "FAIR" INDICATES FEW OR NO CLOUDS BELOW 12,000 FEET WITH NO
SIGNIFICANT WEATHER AND/OR OBSTRUCTIONS TO VISIBILITY.

* - STATION DOES NOT REPORT WEATHER SUCH AS PRECIPITATION OR FOG.

+ - STATION NOT QUALITY CONTROLLED BY THE NATIONAL WEATHER SERVICE.
    USE DATA WITH CAUTION...ESPECIALLY DEWPOINT AND RELATIVE
    HUMIDITY OBSERVATIONS.

INZ001>003-010>013-019-020-281700-
NORTHWEST INDIANA

CITY           SKY/WX    TMP DP  RH WIND       PRES   REMARKS
KNOX *+          N/A     28 -15  14 NE7       30.33S WCI  21
LA PORTE +     SUNNY     30   9  41 E5        30.34R WCI  25
MICHIGAN CITY+ SUNNY     28   0  29 NE6       30.35R WCI  22
MONTICELLO +   SUNNY     28   9  45 CALM      30.32S
RENSSELAER +   SUNNY     28  10  47 NE5       30.34S WCI  23
VALPARAISO     SUNNY     29   4  34 VRB5      30.34R WCI  24

$$

LMZ046-743>745-281700-
SOUTHERN LAKE MICHIGAN

STATION/POSITION TIME  TEMP WIND        PRES
                       AIR  DIR/SP/G
                 (UTC) (F)  (DEG/KT/KT) (MB)
BURNS HARBOR     1600   25   50/  6/  8 1028.4S
MICHIGAN CITY    1600   22  360/  9/ 11   N/A

$$

INZ004-005-014>016-021>024-281700-
NORTH CENTRAL INDIANA

CITY           SKY/WX    TMP DP  RH WIND       PRES   REMARKS
GOSHEN         SUNNY     26   8  46 VRB6      30.31S WCI  19
LOGANSPORT +   SUNNY     28  10  47 E6        30.33S WCI  22
PERU/GRISSOM   SUNNY     27   8  44 VRB2      30.31R
ROCHESTER +    SUNNY     30   9  40 NE3       30.33R
SOUTH BEND     SUNNY     27   6  41 CALM      30.34R
WARSAW +       SUNNY     28   9  43 NE6       30.32R WCI  22

$$

INZ006>009-017-018-025>027-281700-
NORTHEAST INDIANA

CITY           SKY/WX    TMP DP  RH WIND       PRES   REMARKS
ANGOLA *+      SUNNY     25   5  42 CALM      30.29S
AUBURN +       SUNNY     28   7  40 NE3       30.31S
FORT WAYNE     SUNNY     27   6  41 E5        30.32R WCI  22
HUNTINGTON +   SUNNY     26   2  36 CALM      30.32R

$$

INZ028-029-035-036-043>045-051>053-281700-
WEST CENTRAL INDIANA

CITY           SKY/WX    TMP DP  RH WIND       PRES   REMARKS
CRAWFORDSVL +  SUNNY     27   5  39 N8        30.32R WCI  18
GREENCASTLE +  SUNNY     28  10  47 CALM      30.31S
LAFAYETTE      SUNNY     28   7  41 NE6       30.33S WCI  22
TERRE HAUTE    SUNNY     31  13  47 MISG      30.33R

$$

INZ030>032-037>040-046>048-054>057-064-065-281700-
CENTRAL INDIANA

CITY           SKY/WX    TMP DP  RH WIND       PRES   REMARKS
ANDERSON       MOSUNNY   28   9  43 NE6       30.31  WCI  22
CP ATTERBURY + SUNNY     32  12  43 NE8       30.32R WCI  25
FISHERS *+     SUNNY     28  16  59 NW3       30.32R
FRANKFORT +    SUNNY     29  14  54 N3        30.33R
GREENWOOD *+   SUNNY     28  10  47 N5        30.31R WCI  23
INDIANAPOLIS   MOSUNNY   29  10  45 CALM      30.30R
-EAGLE CREEK   SUNNY     29  10  45 N6        30.31R WCI  23
KOKOMO *+        N/A     28 N/A N/A NE3       30.32R
MARION +       SUNNY     26   9  48 N7        30.32R WCI  18
MT COMFORT *+  MOSUNNY   30   5  34 NE8       30.31R WCI  23
SHELBYVILLE    SUNNY     31  13  47 NE7       30.30R WCI  24
ZIONSVILLE +   SUNNY     28  12  51 NE8       30.31R WCI  20

$$

INZ033-034-041-042-049-050-058-059-281700-
EAST CENTRAL INDIANA

CITY           SKY/WX    TMP DP  RH WIND       PRES   REMARKS
MUNCIE         SUNNY     26   9  48 NE10      30.30R WCI  16

$$

INZ060-061-067>069-081>083-085>088-281700-
SOUTHWEST INDIANA

CITY           SKY/WX    TMP DP  RH WIND       PRES   REMARKS
EVANSVILLE     SUNNY     32  16  51 MISG      30.34R
HUNTINGBURG *+ SUNNY     30  16  55 N7        30.33R WCI  23
WASHINGTON +   SUNNY     29  11  48 CALM      30.33S

$$

INZ062-063-066-070>080-084-089>092-281700-
SOUTH CENTRAL AND SOUTHEAST INDIANA

CITY           SKY/WX    TMP DP  RH WIND       PRES   REMARKS
BEDFORD +      SUNNY     32  10  40 NE5       30.31R WCI  27
BLOOMINGTON    SUNNY     30  12  47 E5        30.30R WCI  25
NORTH VERNON + SUNNY     30  14  51 NE3       30.30R
SEYMOUR +      MOSUNNY   32  16  51 N3        30.32R

$$




USA.gov is the U.S. government's official web portal to all federal, state and local government web resources and services.